Regional Weather Roundup
Issued by NWS

Home | Current Version | Previous Version | Text Only | Print | Product List | Glossary Off
Versions: 1 2 3 4 5 6 7 8 9 10 11 12 13 14 15 16 17 18 19 20 21 22 23 24 25 26 27 28 29 30 31 32 33 34 35 36 37 38 39 40 41 42 43 44 45 46 47 48 49 50

000
ASUS43 KTOP 022208
RWRKS

WEATHER ROUNDUP FOR KANSAS
NATIONAL WEATHER SERVICE GOODLAND KS
500 PM CDT SUN AUG 02 2015

NOTE:  "FAIR" INDICATES FEW OR NO CLOUDS BELOW 12,000 FEET WITH NO
SIGNIFICANT WEATHER AND/OR OBSTRUCTIONS TO VISIBILITY.

KSZ001>006-013>018-027>032-041>047-022300-
NORTHWEST KANSAS

CITY           SKY/WX    TMP DP  RH WIND       PRES   REMARKS
GOODLAND       SUNNY     94  46  19 VRB7      29.96F
HAYS           MOSUNNY   93  63  36 SE10      29.87F
HILL CITY      SUNNY     97  63  32 S8        29.88F HX  98
RUSSELL        MOSUNNY   95  64  35 VRB5      29.85F HX  97
$$

KSZ061>065-074>080-084>089-022300-
SOUTHWEST KANSAS

CITY           SKY/WX    TMP DP  RH WIND       PRES   REMARKS
DODGE CITY     SUNNY     92  61  35 SE7       29.92F
ELKHART          N/A     89  66  46 E9          N/A
GARDEN CITY    SUNNY     91  61  36 SE6       29.93F
GREAT BEND     PTSUNNY   93  68  43 S8G16     29.87F HX  97
LIBERAL        MOSUNNY   91  66  43 SE10      29.92F
PRATT          MOSUNNY   90  64  43 S10       29.92S
$$

KSZ066>073-081>083-090>101-022300-
SOUTHEAST KANSAS

CITY           SKY/WX    TMP DP  RH WIND       PRES   REMARKS
CHANUTE        SUNNY     93  62  35 SW15G25   29.90F
COFFEYVILLE    MOSUNNY   93  65  39 SW13      29.89F HX  95
HUTCHINSON     MOSUNNY   91  69  48 S10       29.89F HX  96
MEDICINE LODGE   N/A     90  69  50 S10       29.88F
NEWTON         SUNNY     90  66  45 S9G17     29.94S
PARSONS        SUNNY     93  65  39 SW8G16    29.91F HX  95
WICHITA INTL   MOSUNNY   90  69  50 S12       29.89F
WICHITA JABRA  MOSUNNY   89  67  47 S13       29.90F
WICHITA MCCONL MOSUNNY   90  68  47 S10       29.90F
WINFIELD       SUNNY     89  69  51 S12       29.91F
$$

KSZ007>012-019>026-033>040-048>060-102>105-022300-
NORTHEAST KANSAS

CITY           SKY/WX    TMP DP  RH WIND       PRES   REMARKS
CONCORDIA      MOSUNNY   96  63  33 CALM      29.85F HX  97
EMPORIA        SUNNY     90  68  48 SW9       29.89F
LAWRENCE       SUNNY     92  68  45 W12       29.86F HX  96
MANHATTAN      SUNNY     96  68  39 S9        29.84F HX 101
MARYSVILLE     SUNNY     95  70  43 SW8       29.84S HX 101
OLATHE IND     MOSUNNY   93  66  40 SW9       29.88F HX  96
OLATHE EXE     SUNNY     92  65  40 W13       29.87F
SALINA         MOSUNNY   96  69  41 S15G24    29.85F HX 102
TOPEKA BILLARD SUNNY     92  69  47 SW8       29.85F HX  97
TOPEKA FORBES  SUNNY     94  68  42 SW8       29.86F HX  98
$$


USA.gov is the U.S. government's official web portal to all federal, state and local government web resources and services.